Time,TemperatureF,DewpointF,PressureIn,WindDirection,WindDirectionDegrees,WindSpeedMPH,WindSpeedGustMPH,Humidity,HourlyPrecipIn,Conditions,Clouds,dailyrainin,SoftwareType,DateUTC
2014-02-06 00:00:00,6.6,-6.9,29.33,SSW,204,3.0,9.0,53,0.00,CLR,SCT,0.00,WeatherDisplay:10.37,2014-02-06 06:00:00,
2014-02-06 00:05:00,6.6,-6.9,29.33,South,180,3.0,9.0,53,0.00,CLR,SCT,0.00,WeatherDisplay:10.37,2014-02-06 06:05:00,
2014-02-06 00:06:00,13.3,-0.7,29.28,SW,225,5.8,5.8,53,0.00,CLR,SCT,0.00,WeatherDisplay:10.37,2014-02-06 06:06:00,
2014-02-06 00:10:00,7.0,-7.0,29.32,South,187,5.0,9.0,52,0.00,CLR,SCT,0.00,WeatherDisplay:10.37,2014-02-06 06:10:00,
2014-02-06 00:15:00,7.0,-7.0,29.32,WNW,289,5.0,9.0,52,0.00,CLR,SCT,0.00,WeatherDisplay:10.37,2014-02-06 06:15:00,
2014-02-06 00:20:00,7.0,-7.0,29.32,NW,315,5.0,9.0,52,0.00,CLR,SCT,0.00,WeatherDisplay:10.37,2014-02-06 06:20:00,
2014-02-06 00:25:00,8.1,-6.8,29.32,NW,315,5.0,9.0,50,0.00,CLR,SCT,0.00,WeatherDisplay:10.37,2014-02-06 06:25:00,
2014-02-06 00:30:00,8.1,-6.8,29.32,NW,315,5.0,7.0,50,0.00,CLR,SCT,0.00,WeatherDisplay:10.37,2014-02-06 06:30:00,
2014-02-06 00:35:00,8.1,-6.8,29.32,NW,315,5.0,7.0,50,0.00,CLR,SCT,0.00,WeatherDisplay:10.37,2014-02-06 06:35:00,
2014-02-06 00:40:00,9.1,-6.6,29.31,NW,310,3.0,9.0,48,0.00,CLR,SCT,0.00,WeatherDisplay:10.37,2014-02-06 06:40:00,
2014-02-06 00:45:00,9.1,-6.6,29.31,West,263,3.0,9.0,48,0.00,CLR,SCT,0.00,WeatherDisplay:10.37,2014-02-06 06:45:00,
2014-02-06 00:49:00,13.3,-0.7,29.28,SW,225,5.8,5.8,53,0.00,CLR,SCT,0.00,WeatherDisplay:10.37,2014-02-06 06:49:00,
2014-02-06 00:50:00,9.1,-6.6,29.31,SW,225,3.0,9.0,48,0.00,CLR,SCT,0.00,WeatherDisplay:10.37,2014-02-06 06:50:00,
2014-02-06 00:55:00,9.3,-6.0,29.31,SW,225,5.0,9.0,49,0.00,CLR,SCT,0.00,WeatherDisplay:10.37,2014-02-06 06:55:00,
2014-02-06 01:00:00,9.3,-6.0,29.31,SW,225,5.0,9.0,49,0.00,CLR,SCT,0.00,WeatherDisplay:10.37,2014-02-06 07:00:00,
2014-02-06 01:05:00,9.3,-6.0,29.31,SW,225,5.0,9.0,49,0.00,CLR,SCT,0.00,WeatherDisplay:10.37,2014-02-06 07:05:00,
2014-02-06 01:06:00,13.3,-0.7,29.28,SW,225,5.8,5.8,53,0.00,CLR,SCT,0.00,WeatherDisplay:10.37,2014-02-06 07:06:00,
2014-02-06 01:10:00,9.5,-6.7,29.30,SW,235,7.0,13.0,47,0.00,CLR,SCT,0.00,WeatherDisplay:10.37,2014-02-06 07:10:00,
2014-02-06 01:15:00,9.5,-6.7,29.30,WNW,292,7.0,13.0,47,0.00,CLR,SCT,0.00,WeatherDisplay:10.37,2014-02-06 07:15:00,
2014-02-06 01:20:00,9.5,-6.7,29.30,NW,315,7.0,13.0,47,0.00,CLR,SCT,0.00,WeatherDisplay:10.37,2014-02-06 07:20:00,
2014-02-06 01:25:00,9.5,-6.3,29.31,NW,312,5.0,13.0,48,0.00,CLR,SCT,0.00,WeatherDisplay:10.37,2014-02-06 07:25:00,
2014-02-06 01:30:00,9.5,-6.3,29.31,WNW,293,5.0,12.0,48,0.00,CLR,SCT,0.00,WeatherDisplay:10.37,2014-02-06 07:30:00,
2014-02-06 01:35:00,9.5,-6.3,29.31,West,270,5.0,12.0,48,0.00,CLR,SCT,0.00,WeatherDisplay:10.37,2014-02-06 07:35:00,
2014-02-06 01:40:00,9.3,-6.0,29.31,West,265,3.0,12.0,49,0.00,CLR,SCT,0.00,WeatherDisplay:10.37,2014-02-06 07:40:00,
2014-02-06 01:45:00,9.3,-6.0,29.31,SW,218,3.0,6.0,49,0.00,CLR,SCT,0.00,WeatherDisplay:10.37,2014-02-06 07:45:00,
2014-02-06 01:50:00,9.3,-6.0,29.31,South,180,3.0,6.0,49,0.00,CLR,SCT,0.00,WeatherDisplay:10.37,2014-02-06 07:50:00,
2014-02-06 01:55:00,10.0,-6.2,29.30,South,183,2.0,11.0,47,0.00,CLR,SCT,0.00,WeatherDisplay:10.37,2014-02-06 07:55:00,
2014-02-06 02:00:00,10.0,-6.2,29.30,SSW,201,2.0,11.0,47,0.00,CLR,SCT,0.00,WeatherDisplay:10.37,2014-02-06 08:00:00,
2014-02-06 02:03:00,13.3,-0.7,29.28,SW,225,5.8,5.8,53,0.00,CLR,SCT,0.00,WeatherDisplay:10.37,2014-02-06 08:03:00,
2014-02-06 02:05:00,10.0,-6.2,29.30,SW,225,2.0,11.0,47,0.00,CLR,SCT,0.00,WeatherDisplay:10.37,2014-02-06 08:05:00,
2014-02-06 02:10:00,9.9,-5.9,29.29,SW,235,6.0,11.0,48,0.00,CLR,SCT,0.00,WeatherDisplay:10.37,2014-02-06 08:10:00,
2014-02-06 02:15:00,9.9,-5.9,29.29,West,262,6.0,9.0,48,0.00,CLR,SCT,0.00,WeatherDisplay:10.37,2014-02-06 08:15:00,
2014-02-06 02:20:00,9.9,-5.9,29.29,West,270,6.0,9.0,48,0.00,CLR,SCT,0.00,WeatherDisplay:10.37,2014-02-06 08:20:00,
2014-02-06 02:24:00,13.3,-0.7,29.28,SW,225,5.8,5.8,53,0.00,CLR,SCT,0.00,WeatherDisplay:10.37,2014-02-06 08:24:00,
2014-02-06 02:25:00,9.5,-5.9,29.29,West,267,3.0,9.0,49,0.00,CLR,SCT,0.00,WeatherDisplay:10.37,2014-02-06 08:25:00,
2014-02-06 02:30:00,9.5,-5.9,29.29,WSW,248,3.0,8.0,49,0.00,CLR,SCT,0.00,WeatherDisplay:10.37,2014-02-06 08:30:00,
2014-02-06 02:35:00,9.5,-5.9,29.29,SW,225,3.0,8.0,49,0.00,CLR,SCT,0.00,WeatherDisplay:10.37,2014-02-06 08:35:00,
2014-02-06 02:36:00,13.3,-0.7,29.28,SW,225,5.8,5.8,53,0.00,CLR,SCT,0.00,WeatherDisplay:10.37,2014-02-06 08:36:00,
2014-02-06 02:40:00,9.7,-6.1,29.29,SW,232,5.0,8.0,48,0.00,CLR,SCT,0.00,WeatherDisplay:10.37,2014-02-06 08:40:00,
2014-02-06 02:45:00,9.7,-6.1,29.29,WNW,285,5.0,8.0,48,0.00,CLR,SCT,0.00,WeatherDisplay:10.37,2014-02-06 08:45:00,
2014-02-06 02:50:00,9.7,-6.1,29.29,NW,315,5.0,8.0,48,0.00,CLR,SCT,0.00,WeatherDisplay:10.37,2014-02-06 08:50:00,
2014-02-06 02:54:00,13.3,-0.7,29.28,SW,225,5.8,5.8,53,0.00,CLR,SCT,0.00,WeatherDisplay:10.37,2014-02-06 08:54:00,
2014-02-06 02:55:00,8.2,-6.6,29.29,NW,305,7.0,13.0,50,0.00,CLR,SCT,0.00,WeatherDisplay:10.37,2014-02-06 08:55:00,
2014-02-06 03:00:00,8.2,-6.6,29.29,WSW,248,7.0,13.0,50,0.00,CLR,SCT,0.00,WeatherDisplay:10.37,2014-02-06 09:00:00,
2014-02-06 03:05:00,8.2,-6.6,29.29,SW,225,7.0,13.0,50,0.00,CLR,SCT,0.00,WeatherDisplay:10.37,2014-02-06 09:05:00,
2014-02-06 03:10:00,6.4,-7.1,29.28,SW,222,6.0,13.0,53,0.00,CLR,SCT,0.00,WeatherDisplay:10.37,2014-02-06 09:10:00,
2014-02-06 03:15:00,6.4,-7.1,29.28,SSW,201,6.0,11.0,53,0.00,CLR,SCT,0.00,WeatherDisplay:10.37,2014-02-06 09:15:00,
2014-02-06 03:20:00,6.4,-7.1,29.28,South,180,6.0,11.0,53,0.00,CLR,SCT,0.00,WeatherDisplay:10.37,2014-02-06 09:20:00,
2014-02-06 03:25:00,5.9,-7.2,29.28,South,190,10.0,13.0,54,0.00,CLR,SCT,0.00,WeatherDisplay:10.37,2014-02-06 09:25:00,
2014-02-06 03:30:00,5.9,-7.2,29.28,WNW,296,10.0,13.0,54,0.00,CLR,SCT,0.00,WeatherDisplay:10.37,2014-02-06 09:30:00,
2014-02-06 03:35:00,5.9,-7.2,29.28,NW,315,10.0,13.0,54,0.00,CLR,SCT,0.00,WeatherDisplay:10.37,2014-02-06 09:35:00,
2014-02-06 03:40:00,4.6,-7.6,29.28,NW,313,6.0,13.0,56,0.00,CLR,SCT,0.00,WeatherDisplay:10.37,2014-02-06 09:40:00,
2014-02-06 03:45:00,4.6,-7.6,29.28,WNW,295,6.0,9.0,56,0.00,CLR,SCT,0.00,WeatherDisplay:10.37,2014-02-06 09:45:00,
2014-02-06 03:50:00,4.6,-7.6,29.28,West,270,6.0,9.0,56,0.00,CLR,SCT,0.00,WeatherDisplay:10.37,2014-02-06 09:50:00,
2014-02-06 03:55:00,3.7,-8.1,29.28,West,267,3.0,9.0,57,0.00,CLR,SCT,0.00,WeatherDisplay:10.37,2014-02-06 09:55:00,
2014-02-06 04:00:00,3.7,-8.1,29.28,WSW,247,3.0,7.0,57,0.00,CLR,SCT,0.00,WeatherDisplay:10.37,2014-02-06 10:00:00,
2014-02-06 04:05:00,3.7,-8.1,29.28,SW,225,3.0,7.0,57,0.00,CLR,SCT,0.00,WeatherDisplay:10.37,2014-02-06 10:05:00,
2014-02-06 04:10:00,3.2,-8.3,29.28,SW,225,6.0,13.0,58,0.00,CLR,SCT,0.00,WeatherDisplay:10.37,2014-02-06 10:10:00,
2014-02-06 04:15:00,3.2,-8.3,29.28,SW,225,6.0,13.0,58,0.00,CLR,SCT,0.00,WeatherDisplay:10.37,2014-02-06 10:15:00,
2014-02-06 04:20:00,3.2,-8.3,29.28,SW,225,6.0,13.0,58,0.00,CLR,SCT,0.00,WeatherDisplay:10.37,2014-02-06 10:20:00,
2014-02-06 04:25:00,2.7,-8.4,29.28,SW,225,3.0,13.0,59,0.00,CLR,SCT,0.00,WeatherDisplay:10.37,2014-02-06 10:25:00,
2014-02-06 04:30:00,2.7,-8.4,29.28,SW,225,3.0,8.0,59,0.00,CLR,SCT,0.00,WeatherDisplay:10.37,2014-02-06 10:30:00,
2014-02-06 04:35:00,2.7,-8.4,29.28,SW,225,3.0,8.0,59,0.00,CLR,SCT,0.00,WeatherDisplay:10.37,2014-02-06 10:35:00,
2014-02-06 04:40:00,2.1,-8.9,29.28,SW,219,6.0,8.0,59,0.00,CLR,SCT,0.00,WeatherDisplay:10.37,2014-02-06 10:40:00,
2014-02-06 04:45:00,2.1,-8.9,29.28,SSW,194,6.0,8.0,59,0.00,CLR,SCT,0.00,WeatherDisplay:10.37,2014-02-06 10:45:00,
2014-02-06 04:50:00,2.1,-8.9,29.28,South,180,6.0,8.0,59,0.00,CLR,SCT,0.00,WeatherDisplay:10.37,2014-02-06 10:50:00,
2014-02-06 04:55:00,1.8,-8.9,29.28,South,184,6.0,11.0,60,0.00,CLR,SCT,0.00,WeatherDisplay:10.37,2014-02-06 10:55:00,
2014-02-06 05:00:00,1.8,-8.9,29.28,SSW,207,6.0,11.0,60,0.00,CLR,SCT,0.00,WeatherDisplay:10.37,2014-02-06 11:00:00,
2014-02-06 05:05:00,1.8,-8.9,29.28,SW,225,6.0,11.0,60,0.00,CLR,SCT,0.00,WeatherDisplay:10.37,2014-02-06 11:05:00,
2014-02-06 05:10:00,1.2,-9.1,29.28,SW,229,3.0,11.0,61,0.00,CLR,SCT,0.00,WeatherDisplay:10.37,2014-02-06 11:10:00,
2014-02-06 05:15:00,1.2,-9.1,29.28,West,260,3.0,7.0,61,0.00,CLR,SCT,0.00,WeatherDisplay:10.37,2014-02-06 11:15:00,
2014-02-06 05:18:00,13.3,-0.7,29.28,SW,225,5.8,5.8,53,0.00,CLR,SCT,0.00,WeatherDisplay:10.37,2014-02-06 11:18:00,
2014-02-06 05:20:00,1.2,-9.1,29.28,WNW,292,3.0,7.0,61,0.00,CLR,SCT,0.00,WeatherDisplay:10.37,2014-02-06 11:20:00,
2014-02-06 05:25:00,0.9,-9.5,29.29,WNW,290,3.0,7.0,61,0.00,CLR,SCT,0.00,WeatherDisplay:10.37,2014-02-06 11:25:00,
2014-02-06 05:30:00,0.9,-9.5,29.29,West,280,3.0,4.0,61,0.00,CLR,SCT,0.00,WeatherDisplay:10.37,2014-02-06 11:30:00,
2014-02-06 05:35:00,0.9,-9.5,29.29,West,270,3.0,4.0,61,0.00,CLR,SCT,0.00,WeatherDisplay:10.37,2014-02-06 11:35:00,
2014-02-06 05:36:00,13.3,-0.7,29.28,SW,225,5.8,5.8,53,0.00,CLR,SCT,0.00,WeatherDisplay:10.37,2014-02-06 11:36:00,
2014-02-06 05:40:00,0.5,-9.5,29.29,West,270,2.0,7.0,62,0.00,CLR,SCT,0.00,WeatherDisplay:10.37,2014-02-06 11:40:00,
2014-02-06 05:45:00,0.5,-9.5,29.29,West,270,2.0,7.0,62,0.00,CLR,SCT,0.00,WeatherDisplay:10.37,2014-02-06 11:45:00,
2014-02-06 05:50:00,0.5,-9.5,29.29,West,270,2.0,7.0,62,0.00,CLR,SCT,0.00,WeatherDisplay:10.37,2014-02-06 11:50:00,
2014-02-06 05:55:00,0.0,-10.0,29.29,West,264,3.0,7.0,62,0.00,CLR,SCT,0.00,WeatherDisplay:10.37,2014-02-06 11:55:00,
2014-02-06 06:00:00,0.0,-10.0,29.29,WSW,239,3.0,7.0,62,0.00,CLR,SCT,0.00,WeatherDisplay:10.37,2014-02-06 12:00:00,
2014-02-06 06:05:00,0.0,-10.0,29.29,SW,225,3.0,7.0,62,0.00,CLR,SCT,0.00,WeatherDisplay:10.37,2014-02-06 12:05:00,
2014-02-06 06:10:00,-0.6,-10.2,29.30,SW,222,2.0,7.0,63,0.00,CLR,SCT,0.00,WeatherDisplay:10.37,2014-02-06 12:10:00,
2014-02-06 06:15:00,-0.6,-10.2,29.30,SSW,202,2.0,7.0,63,0.00,CLR,SCT,0.00,WeatherDisplay:10.37,2014-02-06 12:15:00,
2014-02-06 06:20:00,-0.6,-10.2,29.30,South,180,2.0,7.0,63,0.00,CLR,SCT,0.00,WeatherDisplay:10.37,2014-02-06 12:20:00,
2014-02-06 06:25:00,-1.1,-10.7,29.30,South,183,1.0,7.0,63,0.00,CLR,SCT,0.00,WeatherDisplay:10.37,2014-02-06 12:25:00,
2014-02-06 06:30:00,-1.1,-10.7,29.30,SSW,203,1.0,4.0,63,0.00,CLR,SCT,0.00,WeatherDisplay:10.37,2014-02-06 12:30:00,
2014-02-06 06:35:00,-1.1,-10.7,29.30,SW,225,1.0,4.0,63,0.00,CLR,SCT,0.00,WeatherDisplay:10.37,2014-02-06 12:35:00,
2014-02-06 06:40:00,-1.5,-10.7,29.30,SW,231,1.0,4.0,64,0.00,CLR,SCT,0.00,WeatherDisplay:10.37,2014-02-06 12:40:00,
2014-02-06 06:45:00,-1.5,-10.7,29.30,West,266,1.0,4.0,64,0.00,CLR,SCT,0.00,WeatherDisplay:10.37,2014-02-06 12:45:00,
2014-02-06 06:50:00,-1.5,-10.7,29.30,WNW,292,1.0,4.0,64,0.00,CLR,SCT,0.00,WeatherDisplay:10.37,2014-02-06 12:50:00,
2014-02-06 06:55:00,-1.7,-10.9,29.30,WNW,284,2.0,5.0,64,0.00,CLR,SCT,0.00,WeatherDisplay:10.37,2014-02-06 12:55:00,
2014-02-06 07:00:00,-1.7,-10.9,29.30,WSW,245,2.0,5.0,64,0.00,CLR,SCT,0.00,WeatherDisplay:10.37,2014-02-06 13:00:00,
2014-02-06 07:05:00,-1.7,-10.9,29.30,SW,225,2.0,5.0,64,0.00,CLR,SCT,0.00,WeatherDisplay:10.37,2014-02-06 13:05:00,
2014-02-06 07:10:00,-1.7,-10.9,29.30,SW,231,3.0,8.0,64,0.00,CLR,SCT,0.00,WeatherDisplay:10.37,2014-02-06 13:10:00,
2014-02-06 07:15:00,-1.7,-10.9,29.30,WSW,256,3.0,8.0,64,0.00,CLR,SCT,0.00,WeatherDisplay:10.37,2014-02-06 13:15:00,
2014-02-06 07:20:00,-1.7,-10.9,29.30,West,270,3.0,8.0,64,0.00,CLR,SCT,0.00,WeatherDisplay:10.37,2014-02-06 13:20:00,
2014-02-06 07:25:00,-1.8,-11.1,29.30,West,268,1.0,8.0,64,0.00,CLR,SCT,0.00,WeatherDisplay:10.37,2014-02-06 13:25:00,
2014-02-06 07:30:00,-1.8,-11.1,29.30,WSW,251,1.0,4.0,64,0.00,CLR,SCT,0.00,WeatherDisplay:10.37,2014-02-06 13:30:00,
2014-02-06 07:35:00,-1.8,-11.1,29.30,SW,225,1.0,4.0,64,0.00,CLR,SCT,0.00,WeatherDisplay:10.37,2014-02-06 13:35:00,
2014-02-06 07:40:00,-2.2,-11.1,29.31,SW,225,6.0,8.0,65,0.00,CLR,SCT,0.00,WeatherDisplay:10.37,2014-02-06 13:40:00,
2014-02-06 07:45:00,-2.2,-11.1,29.31,SW,225,6.0,8.0,65,0.00,CLR,SCT,0.00,WeatherDisplay:10.37,2014-02-06 13:45:00,
2014-02-06 07:50:00,-2.2,-11.1,29.31,SW,225,6.0,8.0,65,0.00,CLR,SCT,0.00,WeatherDisplay:10.37,2014-02-06 13:50:00,
2014-02-06 07:55:00,-2.4,-11.0,29.30,SW,227,3.0,8.0,66,0.00,CLR,SCT,0.00,WeatherDisplay:10.37,2014-02-06 13:55:00,
2014-02-06 08:00:00,-2.4,-11.0,29.30,WSW,245,3.0,7.0,66,0.00,CLR,SCT,0.00,WeatherDisplay:10.37,2014-02-06 14:00:00,
2014-02-06 08:05:00,-2.4,-11.0,29.30,West,270,3.0,7.0,66,0.00,CLR,SCT,0.00,WeatherDisplay:10.37,2014-02-06 14:05:00,
2014-02-06 08:10:00,-2.7,-11.3,29.31,West,265,3.0,7.0,66,0.00,CLR,SCT,0.00,WeatherDisplay:10.37,2014-02-06 14:10:00,
2014-02-06 08:15:00,-2.7,-11.3,29.31,WSW,241,3.0,6.0,66,0.00,CLR,SCT,0.00,WeatherDisplay:10.37,2014-02-06 14:15:00,
2014-02-06 08:20:00,-2.7,-11.3,29.31,SW,225,3.0,6.0,66,0.00,CLR,SCT,0.00,WeatherDisplay:10.37,2014-02-06 14:20:00,
2014-02-06 08:25:00,-2.9,-11.2,29.30,SW,225,7.0,10.0,67,0.00,CLR,SCT,0.00,WeatherDisplay:10.37,2014-02-06 14:25:00,
2014-02-06 08:30:00,-2.9,-11.2,29.30,SW,225,7.0,10.0,67,0.00,CLR,SCT,0.00,WeatherDisplay:10.37,2014-02-06 14:30:00,
2014-02-06 08:31:00,13.3,-0.7,29.28,SW,225,5.8,5.8,53,0.00,CLR,SCT,0.00,WeatherDisplay:10.37,2014-02-06 14:31:00,
2014-02-06 08:35:00,-2.9,-11.2,29.30,SW,225,7.0,10.0,67,0.00,CLR,SCT,0.00,WeatherDisplay:10.37,2014-02-06 14:35:00,
2014-02-06 08:40:00,-2.9,-10.9,29.30,SW,225,6.0,10.0,68,0.00,CLR,SCT,0.00,WeatherDisplay:10.37,2014-02-06 14:40:00,
2014-02-06 08:45:00,-2.9,-10.9,29.30,SW,225,6.0,8.0,68,0.00,CLR,SCT,0.00,WeatherDisplay:10.37,2014-02-06 14:45:00,
2014-02-06 08:49:00,13.3,-0.7,29.28,SW,225,5.8,5.8,53,0.00,CLR,SCT,0.00,WeatherDisplay:10.37,2014-02-06 14:49:00,
2014-02-06 08:50:00,-2.9,-10.9,29.30,SW,225,6.0,8.0,68,0.00,CLR,SCT,0.00,WeatherDisplay:10.37,2014-02-06 14:50:00,
2014-02-06 08:55:00,-3.1,-10.7,29.29,SW,225,7.0,11.0,69,0.00,CLR,SCT,0.00,WeatherDisplay:10.37,2014-02-06 14:55:00,
2014-02-06 09:00:00,-3.1,-10.7,29.29,SW,225,7.0,11.0,69,0.00,CLR,SCT,0.00,WeatherDisplay:10.37,2014-02-06 15:00:00,
2014-02-06 09:05:00,-3.1,-10.7,29.29,SW,225,7.0,11.0,69,0.00,CLR,SCT,0.00,WeatherDisplay:10.37,2014-02-06 15:05:00,
2014-02-06 09:10:00,-3.1,-10.7,29.29,SW,228,3.0,11.0,69,0.00,CLR,SCT,0.00,WeatherDisplay:10.37,2014-02-06 15:10:00,
2014-02-06 09:15:00,-3.1,-10.7,29.29,West,259,3.0,6.0,69,0.00,CLR,SCT,0.00,WeatherDisplay:10.37,2014-02-06 15:15:00,
2014-02-06 09:20:00,-3.1,-10.7,29.29,NW,315,3.0,6.0,69,0.00,CLR,SCT,0.00,WeatherDisplay:10.37,2014-02-06 15:20:00,
2014-02-06 09:25:00,-2.9,-10.3,29.29,NW,307,3.0,6.0,70,0.00,CLR,SCT,0.00,WeatherDisplay:10.37,2014-02-06 15:25:00,
2014-02-06 09:30:00,-2.9,-10.3,29.29,WSW,254,3.0,6.0,70,0.00,CLR,SCT,0.00,WeatherDisplay:10.37,2014-02-06 15:30:00,
2014-02-06 09:35:00,-2.9,-10.3,29.29,SW,225,3.0,6.0,70,0.00,CLR,SCT,0.00,WeatherDisplay:10.37,2014-02-06 15:35:00,
2014-02-06 09:40:00,-2.9,-10.0,29.29,SW,220,5.0,8.0,71,0.00,CLR,SCT,0.00,WeatherDisplay:10.37,2014-02-06 15:40:00,
2014-02-06 09:45:00,-2.9,-10.0,29.29,SSW,196,5.0,8.0,71,0.00,CLR,SCT,0.00,WeatherDisplay:10.37,2014-02-06 15:45:00,
2014-02-06 09:50:00,-2.9,-10.0,29.29,South,180,5.0,8.0,71,0.00,CLR,SCT,0.00,WeatherDisplay:10.37,2014-02-06 15:50:00,
2014-02-06 09:55:00,-2.9,-10.0,29.28,South,180,2.0,8.0,71,0.00,CLR,SCT,0.00,WeatherDisplay:10.37,2014-02-06 15:55:00,
2014-02-06 10:00:00,-2.9,-10.0,29.28,South,180,2.0,5.0,71,0.00,CLR,SCT,0.00,WeatherDisplay:10.37,2014-02-06 16:00:00,
2014-02-06 10:05:00,-2.9,-10.0,29.28,South,180,2.0,5.0,71,0.00,CLR,SCT,0.00,WeatherDisplay:10.37,2014-02-06 16:05:00,
2014-02-06 10:10:00,-3.1,-9.9,29.28,SSW,197,6.0,9.0,72,0.00,CLR,SCT,0.00,WeatherDisplay:10.37,2014-02-06 16:10:00,
2014-02-06 10:15:00,-3.1,-9.9,29.28,WSW,256,6.0,9.0,72,0.00,CLR,SCT,0.00,WeatherDisplay:10.37,2014-02-06 16:15:00,
2014-02-06 10:20:00,-3.1,-9.9,29.28,West,270,6.0,9.0,72,0.00,CLR,SCT,0.00,WeatherDisplay:10.37,2014-02-06 16:20:00,
2014-02-06 10:25:00,-2.9,-9.7,29.28,West,268,1.0,9.0,72,0.00,CLR,SCT,0.00,WeatherDisplay:10.37,2014-02-06 16:25:00,
2014-02-06 10:30:00,-2.9,-9.7,29.28,WSW,249,1.0,4.0,72,0.00,CLR,SCT,0.00,WeatherDisplay:10.37,2014-02-06 16:30:00,
2014-02-06 10:33:00,13.3,-0.7,29.28,SW,225,5.8,5.8,53,0.00,CLR,SCT,0.00,WeatherDisplay:10.37,2014-02-06 16:33:00,
2014-02-06 10:35:00,-2.9,-9.7,29.28,South,180,1.0,4.0,72,0.00,CLR,SCT,0.00,WeatherDisplay:10.37,2014-02-06 16:35:00,
2014-02-06 10:40:00,-3.1,-9.9,29.28,South,190,5.0,8.0,72,0.00,CLR,SCT,0.00,WeatherDisplay:10.37,2014-02-06 16:40:00,
2014-02-06 10:45:00,-3.1,-9.9,29.28,SW,217,5.0,8.0,72,0.00,CLR,SCT,0.00,WeatherDisplay:10.37,2014-02-06 16:45:00,
2014-02-06 10:46:00,13.3,-0.7,29.28,SW,225,5.8,5.8,53,0.00,CLR,SCT,0.00,WeatherDisplay:10.37,2014-02-06 16:46:00,
2014-02-06 10:50:00,-3.1,-9.9,29.28,SW,225,5.0,8.0,72,0.00,CLR,SCT,0.00,WeatherDisplay:10.37,2014-02-06 16:50:00,
2014-02-06 10:55:00,-3.1,-9.6,29.28,SW,225,8.0,11.0,73,0.00,CLR,SCT,0.00,WeatherDisplay:10.37,2014-02-06 16:55:00,
2014-02-06 11:00:00,-3.1,-9.6,29.28,SW,225,8.0,11.0,73,0.00,CLR,SCT,0.00,WeatherDisplay:10.37,2014-02-06 17:00:00,
2014-02-06 11:05:00,-3.1,-9.6,29.28,SW,225,8.0,11.0,73,0.00,CLR,SCT,0.00,WeatherDisplay:10.37,2014-02-06 17:05:00,
2014-02-06 11:10:00,-3.3,-9.8,29.27,SW,223,3.0,11.0,73,0.00,CLR,SCT,0.00,WeatherDisplay:10.37,2014-02-06 17:10:00,
2014-02-06 11:15:00,-3.3,-9.8,29.27,SSW,206,3.0,7.0,73,0.00,CLR,SCT,0.00,WeatherDisplay:10.37,2014-02-06 17:15:00,
2014-02-06 11:20:00,-3.3,-9.8,29.27,South,180,3.0,7.0,73,0.00,CLR,SCT,0.00,WeatherDisplay:10.37,2014-02-06 17:20:00,
2014-02-06 11:25:00,-3.5,-9.7,29.27,South,185,3.0,8.0,74,0.00,CLR,SCT,0.00,WeatherDisplay:10.37,2014-02-06 17:25:00,
2014-02-06 11:30:00,-3.5,-9.7,29.27,SW,231,3.0,8.0,74,0.00,CLR,SCT,0.00,WeatherDisplay:10.37,2014-02-06 17:30:00,
2014-02-06 11:32:00,13.3,-0.7,29.28,SW,225,5.8,5.8,53,0.00,CLR,SCT,0.00,WeatherDisplay:10.37,2014-02-06 17:32:00,
2014-02-06 11:35:00,-3.5,-9.7,29.27,West,270,3.0,8.0,74,0.00,CLR,SCT,0.00,WeatherDisplay:10.37,2014-02-06 17:35:00,
2014-02-06 11:40:00,-3.6,-9.9,29.26,West,261,8.0,11.0,74,0.00,CLR,SCT,0.00,WeatherDisplay:10.37,2014-02-06 17:40:00,
2014-02-06 11:45:00,-3.6,-9.9,29.26,SW,234,8.0,11.0,74,0.00,CLR,SCT,0.00,WeatherDisplay:10.37,2014-02-06 17:45:00,
2014-02-06 11:50:00,-3.6,-9.9,29.26,SW,225,8.0,11.0,74,0.00,CLR,SCT,0.00,WeatherDisplay:10.37,2014-02-06 17:50:00,
2014-02-06 11:55:00,-3.8,-9.8,29.26,SW,225,3.0,11.0,75,0.00,CLR,SCT,0.00,WeatherDisplay:10.37,2014-02-06 17:55:00,
2014-02-06 12:00:00,-3.8,-9.8,29.26,SW,225,3.0,4.0,75,0.00,CLR,SCT,0.00,WeatherDisplay:10.37,2014-02-06 18:00:00,
2014-02-06 12:05:00,-3.8,-9.8,29.26,SW,225,3.0,4.0,75,0.00,CLR,SCT,0.00,WeatherDisplay:10.37,2014-02-06 18:05:00,
2014-02-06 12:10:00,-4.0,-9.7,29.27,SW,225,5.0,8.0,76,0.00,CLR,SCT,0.00,WeatherDisplay:10.37,2014-02-06 18:10:00,
2014-02-06 12:15:00,-4.0,-9.7,29.27,SW,225,5.0,8.0,76,0.00,CLR,SCT,0.00,WeatherDisplay:10.37,2014-02-06 18:15:00,
2014-02-06 12:20:00,-4.0,-9.7,29.27,SW,225,5.0,8.0,76,0.00,CLR,SCT,0.00,WeatherDisplay:10.37,2014-02-06 18:20:00,
2014-02-06 12:25:00,-4.2,-9.8,29.26,SW,225,5.0,9.0,76,0.00,CLR,SCT,0.00,WeatherDisplay:10.37,2014-02-06 18:25:00,
2014-02-06 12:30:00,-4.2,-9.8,29.26,SW,225,5.0,9.0,76,0.00,CLR,SCT,0.00,WeatherDisplay:10.37,2014-02-06 18:30:00,
2014-02-06 12:35:00,-4.2,-9.8,29.26,SW,225,5.0,9.0,76,0.00,CLR,SCT,0.00,WeatherDisplay:10.37,2014-02-06 18:35:00,
2014-02-06 12:40:00,-4.2,-9.6,29.27,SW,229,3.0,9.0,77,0.00,CLR,SCT,0.00,WeatherDisplay:10.37,2014-02-06 18:40:00,
2014-02-06 12:42:00,13.3,-0.7,29.28,SW,225,5.8,5.8,53,0.00,CLR,SCT,0.00,WeatherDisplay:10.37,2014-02-06 18:42:00,
2014-02-06 12:45:00,-4.2,-9.6,29.27,West,271,3.0,6.0,77,0.00,CLR,SCT,0.00,WeatherDisplay:10.37,2014-02-06 18:45:00,
2014-02-06 12:50:00,-4.2,-9.6,29.27,NW,315,3.0,6.0,77,0.00,CLR,SCT,0.00,WeatherDisplay:10.37,2014-02-06 18:50:00,
2014-02-06 12:55:00,-4.0,-9.4,29.25,NW,307,3.0,6.0,77,0.00,CLR,SCT,0.00,WeatherDisplay:10.37,2014-02-06 18:55:00,
2014-02-06 12:59:00,13.3,-0.7,29.28,SW,225,5.8,5.8,53,0.00,CLR,SCT,0.00,WeatherDisplay:10.37,2014-02-06 18:59:00,
2014-02-06 13:00:00,-4.0,-9.4,29.25,WSW,254,3.0,6.0,77,0.00,CLR,SCT,0.00,WeatherDisplay:10.37,2014-02-06 19:00:00,
2014-02-06 13:05:00,-4.0,-9.4,29.25,SW,225,3.0,6.0,77,0.00,CLR,SCT,0.00,WeatherDisplay:10.37,2014-02-06 19:05:00,
2014-02-06 13:10:00,-4.2,-9.3,29.25,SW,222,6.0,11.0,78,0.00,CLR,SCT,0.00,WeatherDisplay:10.37,2014-02-06 19:10:00,
2014-02-06 13:12:00,13.3,-0.7,29.28,SW,225,5.8,5.8,53,0.00,CLR,SCT,0.00,WeatherDisplay:10.37,2014-02-06 19:12:00,
2014-02-06 13:15:00,-4.2,-9.3,29.25,SSW,209,6.0,11.0,78,0.00,CLR,SCT,0.00,WeatherDisplay:10.37,2014-02-06 19:15:00,
2014-02-06 13:20:00,-4.2,-9.3,29.25,SSW,202,6.0,11.0,78,0.00,CLR,SCT,0.00,WeatherDisplay:10.37,2014-02-06 19:20:00,
2014-02-06 13:25:00,-4.0,-9.1,29.25,SSW,204,5.0,11.0,78,0.00,CLR,SCT,0.00,WeatherDisplay:10.37,2014-02-06 19:25:00,
2014-02-06 13:30:00,-4.0,-9.1,29.25,SW,215,5.0,9.0,78,0.00,CLR,SCT,0.00,WeatherDisplay:10.37,2014-02-06 19:30:00,
2014-02-06 13:35:00,-4.0,-9.1,29.25,SW,225,5.0,9.0,78,0.00,CLR,SCT,0.00,WeatherDisplay:10.37,2014-02-06 19:35:00,
2014-02-06 13:40:00,-4.0,-9.1,29.25,SW,230,6.0,10.0,78,0.00,CLR,SCT,0.00,WeatherDisplay:10.37,2014-02-06 19:40:00,
2014-02-06 13:45:00,-4.0,-9.1,29.25,WSW,254,6.0,10.0,78,0.00,CLR,SCT,0.00,WeatherDisplay:10.37,2014-02-06 19:45:00,
2014-02-06 13:50:00,-4.0,-9.1,29.25,West,270,6.0,10.0,78,0.00,CLR,SCT,0.00,WeatherDisplay:10.37,2014-02-06 19:50:00,
2014-02-06 13:55:00,-4.4,-9.5,29.25,West,265,3.0,10.0,78,0.00,CLR,SCT,0.00,WeatherDisplay:10.37,2014-02-06 19:55:00,
2014-02-06 14:00:00,-4.4,-9.5,29.25,SW,223,3.0,8.0,78,0.00,CLR,SCT,0.00,WeatherDisplay:10.37,2014-02-06 20:00:00,
2014-02-06 14:02:00,13.3,-0.7,29.28,SW,225,5.8,5.8,53,0.00,CLR,SCT,0.00,WeatherDisplay:10.37,2014-02-06 20:02:00,
2014-02-06 14:05:00,-4.4,-9.5,29.25,South,180,3.0,8.0,78,0.00,CLR,SCT,0.00,WeatherDisplay:10.37,2014-02-06 20:05:00,
2014-02-06 14:10:00,-4.4,-9.5,29.24,South,183,3.0,8.0,78,0.00,CLR,SCT,0.00,WeatherDisplay:10.37,2014-02-06 20:10:00,
2014-02-06 14:15:00,-4.4,-9.5,29.24,SSW,205,3.0,7.0,78,0.00,CLR,SCT,0.00,WeatherDisplay:10.37,2014-02-06 20:15:00,
2014-02-06 14:19:00,13.3,-0.7,29.28,SW,225,5.8,5.8,53,0.00,CLR,SCT,0.00,WeatherDisplay:10.37,2014-02-06 20:19:00,
2014-02-06 14:20:00,-4.4,-9.5,29.24,SW,225,3.0,7.0,78,0.00,CLR,SCT,0.00,WeatherDisplay:10.37,2014-02-06 20:20:00,
2014-02-06 14:25:00,-4.5,-9.7,29.25,SW,225,3.0,9.0,78,0.00,CLR,SCT,0.00,WeatherDisplay:10.37,2014-02-06 20:25:00,
2014-02-06 14:30:00,-4.5,-9.7,29.25,SW,225,3.0,9.0,78,0.00,CLR,SCT,0.00,WeatherDisplay:10.37,2014-02-06 20:30:00,
2014-02-06 14:31:00,13.3,-0.7,29.28,SW,225,5.8,5.8,53,0.00,CLR,SCT,0.00,WeatherDisplay:10.37,2014-02-06 20:31:00,
2014-02-06 14:35:00,-4.5,-9.7,29.25,SW,225,3.0,9.0,78,0.00,CLR,SCT,0.00,WeatherDisplay:10.37,2014-02-06 20:35:00,
2014-02-06 14:40:00,-4.7,-9.6,29.25,SW,220,3.0,9.0,79,0.00,CLR,SCT,0.00,WeatherDisplay:10.37,2014-02-06 20:40:00,
2014-02-06 14:45:00,-4.7,-9.6,29.25,SSW,196,3.0,8.0,79,0.00,CLR,SCT,0.00,WeatherDisplay:10.37,2014-02-06 20:45:00,
2014-02-06 14:50:00,-4.7,-9.6,29.25,South,180,3.0,8.0,79,0.00,CLR,SCT,0.00,WeatherDisplay:10.37,2014-02-06 20:50:00,
2014-02-06 14:55:00,-4.9,-9.7,29.24,South,180,6.0,9.0,79,0.00,CLR,SCT,0.00,WeatherDisplay:10.37,2014-02-06 20:55:00,
2014-02-06 15:00:00,-4.9,-9.7,29.24,South,180,6.0,9.0,79,0.00,CLR,SCT,0.00,WeatherDisplay:10.37,2014-02-06 21:00:00,
2014-02-06 15:05:00,-4.9,-9.7,29.24,South,180,6.0,9.0,79,0.00,CLR,SCT,0.00,WeatherDisplay:10.37,2014-02-06 21:05:00,
2014-02-06 15:10:00,-5.1,-9.9,29.24,South,183,3.0,9.0,79,0.00,CLR,SCT,0.00,WeatherDisplay:10.37,2014-02-06 21:10:00,
2014-02-06 15:15:00,-5.1,-9.9,29.24,SSW,203,3.0,8.0,79,0.00,CLR,SCT,0.00,WeatherDisplay:10.37,2014-02-06 21:15:00,
2014-02-06 15:20:00,-5.1,-9.9,29.24,SW,225,3.0,8.0,79,0.00,CLR,SCT,0.00,WeatherDisplay:10.37,2014-02-06 21:20:00,
2014-02-06 15:21:00,13.3,-0.7,29.28,SW,225,5.8,5.8,53,0.00,CLR,SCT,0.00,WeatherDisplay:10.37,2014-02-06 21:21:00,
2014-02-06 15:25:00,-5.3,-10.1,29.24,SW,225,5.0,8.0,79,0.00,CLR,SCT,0.00,WeatherDisplay:10.37,2014-02-06 21:25:00,
2014-02-06 15:30:00,-5.3,-10.1,29.24,SW,225,5.0,8.0,79,0.00,CLR,SCT,0.00,WeatherDisplay:10.37,2014-02-06 21:30:00,
2014-02-06 15:35:00,-5.3,-10.1,29.24,SW,225,5.0,8.0,79,0.00,CLR,SCT,0.00,WeatherDisplay:10.37,2014-02-06 21:35:00,
2014-02-06 15:40:00,-5.4,-10.3,29.24,SW,225,5.0,8.0,79,0.00,CLR,SCT,0.00,WeatherDisplay:10.37,2014-02-06 21:40:00,
2014-02-06 15:45:00,-5.4,-10.3,29.24,SW,225,5.0,6.0,79,0.00,CLR,SCT,0.00,WeatherDisplay:10.37,2014-02-06 21:45:00,
2014-02-06 15:50:00,-5.4,-10.3,29.24,SW,225,5.0,6.0,79,0.00,CLR,SCT,0.00,WeatherDisplay:10.37,2014-02-06 21:50:00,
2014-02-06 15:55:00,-5.1,-9.9,29.24,SW,223,3.0,7.0,79,0.00,CLR,SCT,0.00,WeatherDisplay:10.37,2014-02-06 21:55:00,
2014-02-06 16:00:00,-5.1,-9.9,29.24,SSW,212,3.0,7.0,79,0.00,CLR,SCT,0.00,WeatherDisplay:10.37,2014-02-06 22:00:00,
2014-02-06 16:05:00,-5.1,-9.9,29.24,SSW,202,3.0,7.0,79,0.00,CLR,SCT,0.00,WeatherDisplay:10.37,2014-02-06 22:05:00,
2014-02-06 16:10:00,-4.9,-9.7,29.24,SSW,204,3.0,7.0,79,0.00,CLR,SCT,0.00,WeatherDisplay:10.37,2014-02-06 22:10:00,
2014-02-06 16:15:00,-4.9,-9.7,29.24,SW,216,3.0,7.0,79,0.00,CLR,SCT,0.00,WeatherDisplay:10.37,2014-02-06 22:15:00,
2014-02-06 16:20:00,-4.9,-9.7,29.24,SW,225,3.0,7.0,79,0.00,CLR,SCT,0.00,WeatherDisplay:10.37,2014-02-06 22:20:00,
2014-02-06 16:25:00,-4.9,-9.7,29.24,SW,227,1.0,7.0,79,0.00,CLR,SCT,0.00,WeatherDisplay:10.37,2014-02-06 22:25:00,
2014-02-06 16:30:00,-4.9,-9.7,29.24,WSW,250,1.0,4.0,79,0.00,CLR,SCT,0.00,WeatherDisplay:10.37,2014-02-06 22:30:00,
2014-02-06 16:35:00,-4.9,-9.7,29.24,WNW,292,1.0,4.0,79,0.00,CLR,SCT,0.00,WeatherDisplay:10.37,2014-02-06 22:35:00,
2014-02-06 16:40:00,-4.7,-9.6,29.23,WNW,288,3.0,8.0,79,0.00,CLR,SCT,0.00,WeatherDisplay:10.37,2014-02-06 22:40:00,
2014-02-06 16:45:00,-4.7,-9.6,29.23,West,275,3.0,8.0,79,0.00,CLR,SCT,0.00,WeatherDisplay:10.37,2014-02-06 22:45:00,
2014-02-06 16:50:00,-4.7,-9.6,29.23,West,270,3.0,8.0,79,0.00,CLR,SCT,0.00,WeatherDisplay:10.37,2014-02-06 22:50:00,
2014-02-06 16:55:00,-4.9,-10.0,29.24,West,262,3.0,8.0,78,0.00,CLR,SCT,0.00,WeatherDisplay:10.37,2014-02-06 22:55:00,
2014-02-06 17:00:00,-4.9,-10.0,29.24,SSW,209,3.0,6.0,78,0.00,CLR,SCT,0.00,WeatherDisplay:10.37,2014-02-06 23:00:00,
2014-02-06 17:05:00,-4.9,-10.0,29.24,South,180,3.0,6.0,78,0.00,CLR,SCT,0.00,WeatherDisplay:10.37,2014-02-06 23:05:00,
2014-02-06 17:10:00,-4.5,-9.7,29.23,South,186,6.0,9.0,78,0.00,CLR,SCT,0.00,WeatherDisplay:10.37,2014-02-06 23:10:00,
2014-02-06 17:15:00,-4.5,-9.7,29.23,SSW,211,6.0,9.0,78,0.00,CLR,SCT,0.00,WeatherDisplay:10.37,2014-02-06 23:15:00,
2014-02-06 17:19:00,13.3,-0.7,29.28,SW,225,5.8,5.8,53,0.00,CLR,SCT,0.00,WeatherDisplay:10.37,2014-02-06 23:19:00,
2014-02-06 17:20:00,-4.5,-9.7,29.23,SW,225,6.0,9.0,78,0.00,CLR,SCT,0.00,WeatherDisplay:10.37,2014-02-06 23:20:00,
2014-02-06 17:25:00,-4.5,-9.7,29.23,SW,227,2.0,9.0,78,0.00,CLR,SCT,0.00,WeatherDisplay:10.37,2014-02-06 23:25:00,
2014-02-06 17:30:00,-4.5,-9.7,29.23,WSW,242,2.0,6.0,78,0.00,CLR,SCT,0.00,WeatherDisplay:10.37,2014-02-06 23:30:00,
2014-02-06 17:35:00,-4.5,-9.7,29.23,West,270,2.0,6.0,78,0.00,CLR,SCT,0.00,WeatherDisplay:10.37,2014-02-06 23:35:00,
2014-02-06 17:40:00,-4.7,-9.8,29.23,WSW,257,5.0,8.0,78,0.00,CLR,SCT,0.00,WeatherDisplay:10.37,2014-02-06 23:40:00,
2014-02-06 17:45:00,-4.7,-9.8,29.23,SSW,198,5.0,8.0,78,0.00,CLR,SCT,0.00,WeatherDisplay:10.37,2014-02-06 23:45:00,
2014-02-06 17:50:00,-4.7,-9.8,29.23,South,180,5.0,8.0,78,0.00,CLR,SCT,0.00,WeatherDisplay:10.37,2014-02-06 23:50:00,
2014-02-06 17:55:00,-4.7,-9.8,29.24,South,186,7.0,11.0,78,0.00,CLR,SCT,0.00,WeatherDisplay:10.37,2014-02-06 23:55:00,
2014-02-06 18:00:00,-4.7,-9.8,29.24,SSW,212,7.0,11.0,78,0.00,CLR,SCT,0.00,WeatherDisplay:10.37,2014-02-07 00:00:00,
2014-02-06 18:05:00,-4.7,-9.8,29.24,SW,225,7.0,11.0,78,0.00,CLR,SCT,0.00,WeatherDisplay:10.37,2014-02-07 00:05:00,
2014-02-06 18:10:00,-4.4,-9.7,29.24,SW,227,2.0,11.0,77,0.00,CLR,SCT,0.00,WeatherDisplay:10.37,2014-02-07 00:10:00,
2014-02-06 18:13:00,13.3,-0.7,29.28,SW,225,5.8,5.8,53,0.00,CLR,SCT,0.00,WeatherDisplay:10.37,2014-02-07 00:13:00,
2014-02-06 18:15:00,-4.4,-9.7,29.24,WSW,251,2.0,4.0,77,0.00,CLR,SCT,0.00,WeatherDisplay:10.37,2014-02-07 00:15:00,
2014-02-06 18:20:00,-4.4,-9.7,29.24,NW,315,2.0,4.0,77,0.00,CLR,SCT,0.00,WeatherDisplay:10.37,2014-02-07 00:20:00,
2014-02-06 18:25:00,-4.0,-9.7,29.24,WNW,302,5.0,8.0,76,0.00,CLR,SCT,0.00,WeatherDisplay:10.37,2014-02-07 00:25:00,
2014-02-06 18:30:00,-4.0,-9.7,29.24,WSW,243,5.0,8.0,76,0.00,CLR,SCT,0.00,WeatherDisplay:10.37,2014-02-07 00:30:00,
2014-02-06 18:35:00,-4.0,-9.7,29.24,SW,225,5.0,8.0,76,0.00,CLR,SCT,0.00,WeatherDisplay:10.37,2014-02-07 00:35:00,
2014-02-06 18:40:00,-3.3,-9.2,29.24,SW,233,6.0,8.0,75,0.00,CLR,SCT,0.00,WeatherDisplay:10.37,2014-02-07 00:40:00,
2014-02-06 18:45:00,-3.3,-9.2,29.24,NW,309,6.0,8.0,75,0.00,CLR,SCT,0.00,WeatherDisplay:10.37,2014-02-07 00:45:00,
2014-02-06 18:50:00,-3.3,-9.2,29.24,NNW,338,6.0,8.0,75,0.00,CLR,SCT,0.00,WeatherDisplay:10.37,2014-02-07 00:50:00,
2014-02-06 18:55:00,-2.6,-8.8,29.24,NNW,332,6.0,9.0,74,0.00,CLR,SCT,0.00,WeatherDisplay:10.37,2014-02-07 00:55:00,
2014-02-06 19:00:00,-2.6,-8.8,29.24,West,265,6.0,9.0,74,0.00,CLR,SCT,0.00,WeatherDisplay:10.37,2014-02-07 01:00:00,
2014-02-06 19:03:00,13.3,-0.7,29.28,SW,225,5.8,5.8,53,0.00,CLR,SCT,0.00,WeatherDisplay:10.37,2014-02-07 01:03:00,
2014-02-06 19:05:00,-2.6,-8.8,29.24,SW,225,6.0,9.0,74,0.00,CLR,SCT,0.00,WeatherDisplay:10.37,2014-02-07 01:05:00,
2014-02-06 19:09:00,13.3,-0.7,29.28,SW,225,5.8,5.8,53,0.00,CLR,SCT,0.00,WeatherDisplay:10.37,2014-02-07 01:09:00,
2014-02-06 19:10:00,-2.2,-8.7,29.25,SW,220,8.0,11.0,73,0.00,CLR,SCT,0.00,WeatherDisplay:10.37,2014-02-07 01:10:00,
2014-02-06 19:15:00,-2.2,-8.7,29.25,SSW,195,8.0,11.0,73,0.00,CLR,SCT,0.00,WeatherDisplay:10.37,2014-02-07 01:15:00,
2014-02-06 19:20:00,13.3,-0.7,29.28,SW,225,5.8,5.8,53,0.00,CLR,SCT,0.00,WeatherDisplay:10.37,2014-02-07 01:20:00,
2014-02-06 19:25:00,-1.7,-8.5,29.25,South,187,8.0,13.0,72,0.00,CLR,SCT,0.00,WeatherDisplay:10.37,2014-02-07 01:25:00,
2014-02-06 19:30:00,-1.7,-8.5,29.25,WSW,256,8.0,13.0,72,0.00,CLR,SCT,0.00,WeatherDisplay:10.37,2014-02-07 01:30:00,
2014-02-06 19:35:00,-1.7,-8.5,29.25,WNW,292,8.0,13.0,72,0.00,CLR,SCT,0.00,WeatherDisplay:10.37,2014-02-07 01:35:00,
2014-02-06 19:37:00,13.3,-0.7,29.28,SW,225,5.8,5.8,53,0.00,CLR,SCT,0.00,WeatherDisplay:10.37,2014-02-07 01:37:00,
2014-02-06 19:40:00,-0.9,-8.1,29.25,WNW,293,3.0,13.0,71,0.00,CLR,SCT,0.00,WeatherDisplay:10.37,2014-02-07 01:40:00,
2014-02-06 19:45:00,-0.9,-8.1,29.25,WNW,301,3.0,6.0,71,0.00,CLR,SCT,0.00,WeatherDisplay:10.37,2014-02-07 01:45:00,
2014-02-06 19:50:00,-0.9,-8.1,29.25,NW,315,3.0,6.0,71,0.00,CLR,SCT,0.00,WeatherDisplay:10.37,2014-02-07 01:50:00,
2014-02-06 19:55:00,-0.2,-8.0,29.25,NW,304,8.0,13.0,69,0.00,CLR,SCT,0.00,WeatherDisplay:10.37,2014-02-07 01:55:00,
2014-02-06 20:00:00,-0.2,-8.0,29.25,West,263,8.0,13.0,69,0.00,CLR,SCT,0.00,WeatherDisplay:10.37,2014-02-07 02:00:00,
2014-02-06 20:05:00,-0.2,-8.0,29.25,WSW,248,8.0,13.0,69,0.00,CLR,SCT,0.00,WeatherDisplay:10.37,2014-02-07 02:05:00,
2014-02-06 20:10:00,0.9,-7.2,29.25,WSW,246,6.0,13.0,68,0.00,CLR,SCT,0.00,WeatherDisplay:10.37,2014-02-07 02:10:00,
2014-02-06 20:15:00,0.9,-7.2,29.25,SW,236,6.0,8.0,68,0.00,CLR,SCT,0.00,WeatherDisplay:10.37,2014-02-07 02:15:00,
2014-02-06 20:20:00,0.9,-7.2,29.25,SW,225,6.0,8.0,68,0.00,CLR,SCT,0.00,WeatherDisplay:10.37,2014-02-07 02:20:00,
2014-02-06 20:25:00,1.4,-7.3,29.25,SW,225,6.0,8.0,66,0.00,CLR,SCT,0.00,WeatherDisplay:10.37,2014-02-07 02:25:00,
2014-02-06 20:30:00,1.4,-7.3,29.25,SW,225,6.0,8.0,66,0.00,CLR,SCT,0.00,WeatherDisplay:10.37,2014-02-07 02:30:00,
2014-02-06 20:35:00,1.4,-7.3,29.25,SW,225,6.0,8.0,66,0.00,CLR,SCT,0.00,WeatherDisplay:10.37,2014-02-07 02:35:00,
2014-02-06 20:40:00,1.9,-6.8,29.26,SW,225,6.0,15.0,66,0.00,CLR,SCT,0.00,WeatherDisplay:10.37,2014-02-07 02:40:00,
2014-02-06 20:45:00,1.9,-6.8,29.26,SW,225,6.0,15.0,66,0.00,CLR,SCT,0.00,WeatherDisplay:10.37,2014-02-07 02:45:00,
2014-02-06 20:50:00,1.9,-6.8,29.26,SW,225,6.0,15.0,66,0.00,CLR,SCT,0.00,WeatherDisplay:10.37,2014-02-07 02:50:00,
2014-02-06 20:55:00,3.7,-5.4,29.25,SW,221,6.0,15.0,65,0.00,CLR,SCT,0.00,WeatherDisplay:10.37,2014-02-07 02:55:00,
2014-02-06 21:00:00,13.3,-0.7,29.28,SW,225,5.8,5.8,53,0.00,CLR,SCT,0.00,WeatherDisplay:10.37,2014-02-07 03:00:00,
2014-02-06 21:05:00,3.7,-5.4,29.25,South,180,6.0,9.0,65,0.00,CLR,SCT,0.00,WeatherDisplay:10.37,2014-02-07 03:05:00,
2014-02-06 21:10:00,5.2,-5.4,29.25,South,186,8.0,11.0,61,0.00,CLR,SCT,0.00,WeatherDisplay:10.37,2014-02-07 03:10:00,
2014-02-06 21:15:00,5.2,-5.4,29.25,SSW,211,8.0,11.0,61,0.00,CLR,SCT,0.00,WeatherDisplay:10.37,2014-02-07 03:15:00,
2014-02-06 21:20:00,5.2,-5.4,29.25,SW,225,8.0,11.0,61,0.00,CLR,SCT,0.00,WeatherDisplay:10.37,2014-02-07 03:20:00,
2014-02-06 21:24:00,13.3,-0.7,29.28,SW,225,5.8,5.8,53,0.00,CLR,SCT,0.00,WeatherDisplay:10.37,2014-02-07 03:24:00,
2014-02-06 21:25:00,6.4,-4.9,29.25,SW,225,6.0,11.0,59,0.00,CLR,SCT,0.00,WeatherDisplay:10.37,2014-02-07 03:25:00,
2014-02-06 21:30:00,6.4,-4.9,29.25,SW,225,6.0,9.0,59,0.00,CLR,SCT,0.00,WeatherDisplay:10.37,2014-02-07 03:30:00,
2014-02-06 21:35:00,6.4,-4.9,29.25,SW,225,6.0,9.0,59,0.00,CLR,SCT,0.00,WeatherDisplay:10.37,2014-02-07 03:35:00,
2014-02-06 21:40:00,7.2,-5.3,29.26,SW,220,7.0,11.0,56,0.00,CLR,SCT,0.00,WeatherDisplay:10.37,2014-02-07 03:40:00,
2014-02-06 21:45:00,7.2,-5.3,29.26,SSW,195,7.0,11.0,56,0.00,CLR,SCT,0.00,WeatherDisplay:10.37,2014-02-07 03:45:00,
2014-02-06 21:50:00,7.2,-5.3,29.26,South,180,7.0,11.0,56,0.00,CLR,SCT,0.00,WeatherDisplay:10.37,2014-02-07 03:50:00,
2014-02-06 21:55:00,8.2,-5.0,29.25,South,186,10.0,19.0,54,0.00,CLR,SCT,0.00,WeatherDisplay:10.37,2014-02-07 03:55:00,
2014-02-06 22:00:00,8.2,-5.0,29.25,SSW,212,10.0,19.0,54,0.00,CLR,SCT,0.00,WeatherDisplay:10.37,2014-02-07 04:00:00,
2014-02-06 22:05:00,8.2,-5.0,29.25,SW,225,10.0,19.0,54,0.00,CLR,SCT,0.00,WeatherDisplay:10.37,2014-02-07 04:05:00,
2014-02-06 22:10:00,8.2,-5.4,29.25,SW,230,8.0,19.0,53,0.00,CLR,SCT,0.00,WeatherDisplay:10.37,2014-02-07 04:10:00,
2014-02-06 22:15:00,8.2,-5.4,29.25,West,272,8.0,15.0,53,0.00,CLR,SCT,0.00,WeatherDisplay:10.37,2014-02-07 04:15:00,
2014-02-06 22:20:00,8.2,-5.4,29.25,NW,315,8.0,15.0,53,0.00,CLR,SCT,0.00,WeatherDisplay:10.37,2014-02-07 04:20:00,
2014-02-06 22:25:00,9.0,-5.1,29.24,NW,309,8.0,15.0,52,0.00,CLR,SCT,0.00,WeatherDisplay:10.37,2014-02-07 04:25:00,
2014-02-06 22:30:00,9.0,-5.1,29.24,WSW,242,8.0,13.0,52,0.00,CLR,SCT,0.00,WeatherDisplay:10.37,2014-02-07 04:30:00,
2014-02-06 22:35:00,9.0,-5.1,29.24,SSW,202,8.0,13.0,52,0.00,CLR,SCT,0.00,WeatherDisplay:10.37,2014-02-07 04:35:00,
2014-02-06 22:40:00,9.5,-4.6,29.24,SSW,203,3.0,13.0,52,0.00,CLR,SCT,0.00,WeatherDisplay:10.37,2014-02-07 04:40:00,
2014-02-06 22:45:00,9.5,-4.6,29.24,SSW,212,3.0,8.0,52,0.00,CLR,SCT,0.00,WeatherDisplay:10.37,2014-02-07 04:45:00,
2014-02-06 22:50:00,9.5,-4.6,29.24,SW,225,3.0,8.0,52,0.00,CLR,SCT,0.00,WeatherDisplay:10.37,2014-02-07 04:50:00,
2014-02-06 22:55:00,10.4,-5.0,29.23,SW,225,5.0,10.0,49,0.00,CLR,SCT,0.00,WeatherDisplay:10.37,2014-02-07 04:55:00,
2014-02-06 23:00:00,10.4,-5.0,29.23,SW,225,5.0,10.0,49,0.00,CLR,SCT,0.00,WeatherDisplay:10.37,2014-02-07 05:00:00,
2014-02-06 23:05:00,10.4,-5.0,29.23,SW,225,5.0,10.0,49,0.00,CLR,SCT,0.00,WeatherDisplay:10.37,2014-02-07 05:05:00,
2014-02-06 23:10:00,11.7,-5.2,29.23,SW,225,6.0,14.0,46,0.00,CLR,SCT,0.00,WeatherDisplay:10.37,2014-02-07 05:10:00,
2014-02-06 23:15:00,11.7,-5.2,29.23,SW,225,6.0,14.0,46,0.00,CLR,SCT,0.00,WeatherDisplay:10.37,2014-02-07 05:15:00,
2014-02-06 23:20:00,11.7,-5.2,29.23,SW,225,6.0,14.0,46,0.00,CLR,SCT,0.00,WeatherDisplay:10.37,2014-02-07 05:20:00,
2014-02-06 23:25:00,11.8,-5.5,29.22,SW,225,6.0,14.0,45,0.00,CLR,SCT,0.00,WeatherDisplay:10.37,2014-02-07 05:25:00,
2014-02-06 23:30:00,11.8,-5.5,29.22,SW,225,6.0,10.0,45,0.00,CLR,SCT,0.00,WeatherDisplay:10.37,2014-02-07 05:30:00,
2014-02-06 23:35:00,11.8,-5.5,29.22,SW,225,6.0,10.0,45,0.00,CLR,SCT,0.00,WeatherDisplay:10.37,2014-02-07 05:35:00,
2014-02-06 23:40:00,13.3,-4.6,29.22,SW,225,3.0,10.0,44,0.00,CLR,SCT,0.00,WeatherDisplay:10.37,2014-02-07 05:40:00,
2014-02-06 23:45:00,13.3,-4.6,29.22,SW,225,3.0,5.0,44,0.00,CLR,SCT,0.00,WeatherDisplay:10.37,2014-02-07 05:45:00,
2014-02-06 23:50:00,13.3,-4.6,29.22,SW,225,3.0,5.0,44,0.00,CLR,SCT,0.00,WeatherDisplay:10.37,2014-02-07 05:50:00,
2014-02-06 23:55:00,12.9,-5.4,29.21,WSW,237,6.0,13.0,43,0.00,CLR,SCT,0.00,WeatherDisplay:10.37,2014-02-07 05:55:00,